Home   Weather   Manassas   Past weeks
Flag for USA

Past Weather in Manassas, Virginia, USA — Yesterday and Last 2 Weeks

Now
28 °F

Clear.


Feels Like: 22 °F
Forecast: 44 / 27 °F
Wind: 6 mph from South

Location: Manassas Municipal

Current Time: Jan 22, 2019 at 8:32:13 pm

Latest Report: Jan 22, 2019 at 7:56 pm


Visibility: 10 mi

Pressure: 30.63 "Hg

Humidity: 53%

Dew Point: 13 °F

Location of ManassasLocation

Past Weather in Manassas — Graph

°F

Manassas Temperature Yesterday

Maximum temperature yesterday: 22 °F (at 1:56 pm)
Minimum temperature yesterday: 13 °F (at 5:56 am)
Average temperature yesterday: 17 °F

High & Low Weather Summary for the Past Weeks

 TemperatureHumidityPressure
High61 °F (Jan 8, 2:56 pm)100% (Jan 12, 6:10 pm)30.78 "Hg (Jan 12, 6:10 pm)
Low4 °F (Jan 15, 4:56 am)30% (Jan 22, 3:56 pm)29.32 "Hg (Jan 20, 6:18 am)
Average29 °F78%30.20 "Hg
* Reported Jan 7 6:56 pm — Jan 22 6:56 pm, Manassas. Weather by CustomWeather, © 2019

Note: Actual official high and low records may vary slightly from our data, if they occured in-between our weather recording intervals... More about our weather records

Advertising

Manassas Weather History for the Previous 24 Hours

Scroll right to see more
 ConditionsComfort  
Time TempWeatherWind HumidityBarometerVisibility
6:56 pm
Tue, Jan 22
28 °FClear.7 mph49%30.64 "Hg10 mi
5:56 pm28 °FClear.6 mph49%30.64 "Hg10 mi
4:56 pm30 °FSunny.7 mph45%30.64 "Hg10 mi
3:56 pm32 °FSunny.7 mph30%30.65 "Hg10 mi
2:56 pm32 °FSunny.5 mph32%30.67 "Hg10 mi
1:56 pm31 °FSunny.5 mph36%30.69 "Hg10 mi
12:56 pm29 °FSunny.6 mph39%30.72 "Hg10 mi
11:56 am26 °FSunny.No wind37%30.76 "Hg10 mi
10:56 am23 °FSunny.No wind48%30.78 "Hg10 mi
9:56 am20 °FSunny.No wind55%30.78 "Hg10 mi
8:56 am16 °FSunny.No wind67%30.78 "Hg10 mi
7:56 am11 °FSunny.No wind84%30.76 "Hg10 mi
6:56 am10 °FClear.No wind88%30.73 "Hg10 mi
5:56 am11 °FClear.No wind81%30.71 "Hg10 mi
4:56 am11 °FClear.No wind81%30.73 "Hg10 mi
3:56 am12 °FClear.5 mph73%30.71 "Hg10 mi
2:56 am13 °FClear.8 mph67%30.68 "Hg10 mi
1:56 am13 °FClear.7 mph64%30.68 "Hg10 mi
12:56 am14 °FClear.8 mph64%30.67 "Hg10 mi
11:56 pm
Mon, Jan 21
14 °FClear.8 mph61%30.64 "Hg10 mi
10:56 pm15 °FClear.12 mph58%30.64 "Hg10 mi
9:56 pm16 °FClear.8 mph56%30.61 "Hg10 mi
8:56 pm17 °FClear.15 mph51%30.60 "Hg10 mi
Weather by CustomWeather, © 2019

See weather overview